This is the latest recevied weather packets stored in our database for station/object DM4WH-13. If no packets are shown the sender has not sent any weather packets the latest 10 day(s).
| Time | Temp. | Humidity | Pressure | Rain* | Wind** | Luminosity | Snow |
|---|---|---|---|---|---|---|---|
| 1777641612 | 22.22° C | 37% | 1029.2 hPa | 0 mm | 0.45 m/s, 342° | - | - |
| 1777641325 | 21.11° C | 37% | 1029.3 hPa | 0 mm | 0.45 m/s, 254° | - | - |
| 1777641012 | 20° C | 36% | 1029.4 hPa | 0 mm | 0 m/s | - | - |
| 1777640725 | 20° C | 41% | 1029.5 hPa | 0 mm | 0.45 m/s, 335° | - | - |
| 1777640412 | 20° C | 37% | 1029.7 hPa | 0 mm | 0 m/s | - | - |
| 1777640125 | 20° C | 38% | 1029.7 hPa | 0 mm | 0.45 m/s, 301° | - | - |
| 1777639812 | 20° C | 37% | 1029.8 hPa | 0 mm | 0.45 m/s, 287° | - | - |
| 1777639525 | 20° C | 39% | 1029.8 hPa | 0 mm | 0.45 m/s, 352° | - | - |
| 1777639212 | 18.89° C | 40% | 1029.9 hPa | 0 mm | 0.45 m/s, 285° | - | - |
| 1777638937 | 18.89° C | 39% | 1029.9 hPa | 0 mm | 0.89 m/s, 288° | - | - |
| 1777638625 | 18.89° C | 38% | 1030 hPa | 0 mm | 1.34 m/s, 323° | - | - |
| 1777638312 | 20° C | 39% | 1030 hPa | 0 mm | 0.89 m/s, 299° | - | - |
| 1777638025 | 20° C | 39% | 1030.1 hPa | 0 mm | 0 m/s | - | - |
| 1777637712 | 18.89° C | 39% | 1030.2 hPa | 0 mm | 0.45 m/s, 282° | - | - |
| 1777637425 | 18.89° C | 40% | 1030.2 hPa | 0 mm | 0.45 m/s, 288° | - | - |
| 1777637112 | 18.89° C | 41% | 1030.1 hPa | 0 mm | 0.45 m/s, 281° | - | - |
| 1777636825 | 18.89° C | 40% | 1030.2 hPa | 0 mm | 0.89 m/s, 285° | - | - |
| 1777636512 | 18.89° C | 40% | 1030.3 hPa | 0 mm | 0.45 m/s, 304° | - | - |
| 1777636225 | 18.89° C | 42% | 1030.3 hPa | 0 mm | 0.45 m/s, 340° | - | - |
| 1777635913 | 18.89° C | 39% | 1030.3 hPa | 0 mm | 0.45 m/s, 40° | - | - |
| 1777635625 | 20° C | 41% | 1030.4 hPa | 0 mm | 0.89 m/s, 302° | - | - |
| 1777635313 | 20° C | 42% | 1030.4 hPa | 0 mm | 0.45 m/s, 60° | - | - |
| 1777635025 | 18.89° C | 40% | 1030.5 hPa | 0 mm | 0.45 m/s, 276° | - | - |
| 1777634712 | 18.89° C | 42% | 1030.5 hPa | 0 mm | 0.89 m/s, 303° | - | - |
| 1777634425 | 17.78° C | 43% | 1030.5 hPa | 0 mm | 0.45 m/s, 67° | - | - |
* Rain latest hour (hover to see other rain measurements)
** Current wind speed in m/s (hover to see current wind gust speed)